Time,TemperatureF,DewpointF,PressureIn,WindDirection,WindDirectionDegrees,WindSpeedMPH,WindSpeedGustMPH,Humidity,HourlyPrecipIn,Conditions,Clouds,dailyrainin,SoftwareType,DateUTC
2013-02-08 00:12:00,50.1,48.0,29.84,SW,224,2.0,4.0,93,0.11,,,0.03,weatherlink.com 1.10,2013-02-08 05:12:00,
2013-02-08 00:27:00,50.0,48.0,29.84,WSW,248,6.0,10.0,94,0.14,,,0.09,weatherlink.com 1.10,2013-02-08 05:27:00,
2013-02-08 00:42:00,49.6,48.0,29.85,West,273,3.0,10.0,93,0.14,,,0.11,weatherlink.com 1.10,2013-02-08 05:42:00,
2013-02-08 00:57:00,49.1,47.0,29.85,West,266,7.0,9.0,93,0.13,,,0.12,weatherlink.com 1.10,2013-02-08 05:57:00,
2013-02-08 01:13:00,48.5,47.0,29.86,WNW,297,2.0,11.0,93,0.10,,,0.13,weatherlink.com 1.10,2013-02-08 06:13:00,
2013-02-08 01:27:00,47.5,45.0,29.86,West,274,2.0,12.0,92,0.05,,,0.14,weatherlink.com 1.10,2013-02-08 06:27:00,
2013-02-08 01:57:00,45.8,44.0,29.87,WNW,299,2.0,10.0,92,0.04,,,0.16,weatherlink.com 1.10,2013-02-08 06:57:00,
2013-02-08 02:12:00,44.4,41.0,29.88,NW,311,2.0,12.0,89,0.03,,,0.16,weatherlink.com 1.10,2013-02-08 07:12:00,
2013-02-08 02:27:00,43.4,41.0,29.88,NW,306,1.0,10.0,90,0.03,,,0.17,weatherlink.com 1.10,2013-02-08 07:27:00,
2013-02-08 02:43:00,42.7,40.0,29.89,NNW,340,2.0,9.0,91,0.04,,,0.18,weatherlink.com 1.10,2013-02-08 07:43:00,
2013-02-08 02:58:00,41.8,39.0,29.90,WNW,302,3.0,10.0,91,0.02,,,0.18,weatherlink.com 1.10,2013-02-08 07:58:00,
2013-02-08 03:13:00,41.4,39.0,29.91,NW,304,5.0,9.0,92,0.02,,,0.18,weatherlink.com 1.10,2013-02-08 08:13:00,
2013-02-08 03:28:00,40.7,38.0,29.92,NW,313,6.0,10.0,91,0.01,,,0.18,weatherlink.com 1.10,2013-02-08 08:28:00,
2013-02-08 03:43:00,39.9,38.0,29.93,NW,315,1.0,12.0,91,0.00,,,0.18,weatherlink.com 1.10,2013-02-08 08:43:00,
2013-02-08 03:58:00,39.0,36.0,29.93,NW,313,3.0,9.0,90,0.00,,,0.18,weatherlink.com 1.10,2013-02-08 08:58:00,
2013-02-08 04:13:00,38.5,36.0,29.94,West,264,4.0,10.0,90,0.00,,,0.18,weatherlink.com 1.10,2013-02-08 09:13:00,
2013-02-08 04:28:00,38.2,36.0,29.95,NW,306,1.0,7.0,90,0.00,,,0.18,weatherlink.com 1.10,2013-02-08 09:28:00,
2013-02-08 04:43:00,37.9,35.0,29.95,NW,321,3.0,13.0,89,0.00,,,0.18,weatherlink.com 1.10,2013-02-08 09:43:00,
2013-02-08 04:58:00,37.5,35.0,29.96,NNW,343,4.0,16.0,89,0.00,,,0.18,weatherlink.com 1.10,2013-02-08 09:58:00,
2013-02-08 05:13:00,36.9,33.0,29.97,West,279,1.0,14.0,87,0.00,,,0.18,weatherlink.com 1.10,2013-02-08 10:13:00,
2013-02-08 05:28:00,36.4,34.0,29.98,NNW,336,3.0,11.0,89,0.00,,,0.18,weatherlink.com 1.10,2013-02-08 10:28:00,
2013-02-08 05:43:00,36.4,34.0,29.98,NW,315,2.0,10.0,89,0.00,,,0.18,weatherlink.com 1.10,2013-02-08 10:43:00,
2013-02-08 05:58:00,36.2,33.0,29.99,West,281,3.0,9.0,89,0.00,,,0.18,weatherlink.com 1.10,2013-02-08 10:58:00,
2013-02-08 06:13:00,36.2,33.0,30.00,WNW,300,4.0,7.0,88,0.00,,,0.18,weatherlink.com 1.10,2013-02-08 11:13:00,
2013-02-08 06:29:00,35.9,33.0,30.01,NW,313,5.0,8.0,88,0.00,,,0.18,weatherlink.com 1.10,2013-02-08 11:29:00,
2013-02-08 06:43:00,35.7,33.0,30.02,North,355,0.0,6.0,88,0.00,,,0.18,weatherlink.com 1.10,2013-02-08 11:43:00,
2013-02-08 06:58:00,35.6,32.0,30.03,NW,304,4.0,10.0,87,0.00,,,0.18,weatherlink.com 1.10,2013-02-08 11:58:00,
2013-02-08 07:13:00,35.5,32.0,30.04,WNW,296,1.0,8.0,88,0.00,,,0.18,weatherlink.com 1.10,2013-02-08 12:13:00,
2013-02-08 07:28:00,35.3,32.0,30.04,NW,307,2.0,7.0,88,0.00,,,0.18,weatherlink.com 1.10,2013-02-08 12:28:00,
2013-02-08 07:44:00,35.3,32.0,30.05,WSW,249,1.0,11.0,88,0.00,,,0.18,weatherlink.com 1.10,2013-02-08 12:44:00,
2013-02-08 07:59:00,35.2,32.0,30.06,NNW,328,1.0,7.0,87,0.00,,,0.18,weatherlink.com 1.10,2013-02-08 12:59:00,
2013-02-08 08:14:00,35.2,32.0,30.07,NNW,335,1.0,8.0,88,0.00,,,0.18,weatherlink.com 1.10,2013-02-08 13:14:00,
2013-02-08 08:29:00,35.1,32.0,30.08,WNW,300,3.0,14.0,87,0.00,,,0.18,weatherlink.com 1.10,2013-02-08 13:29:00,
2013-02-08 08:44:00,35.0,32.0,30.09,SE,126,6.0,8.0,88,0.00,,,0.18,weatherlink.com 1.10,2013-02-08 13:44:00,
2013-02-08 08:59:00,34.9,31.0,30.10,NW,323,5.0,10.0,87,0.00,,,0.18,weatherlink.com 1.10,2013-02-08 13:59:00,
2013-02-08 09:14:00,34.8,31.0,30.11,NW,319,3.0,9.0,87,0.00,,,0.18,weatherlink.com 1.10,2013-02-08 14:14:00,
2013-02-08 09:29:00,34.8,31.0,30.12,NNW,331,3.0,7.0,86,0.00,,,0.18,weatherlink.com 1.10,2013-02-08 14:29:00,
2013-02-08 09:44:00,34.7,31.0,30.12,NW,320,3.0,9.0,87,0.00,,,0.18,weatherlink.com 1.10,2013-02-08 14:44:00,
2013-02-08 09:59:00,34.6,31.0,30.13,NW,320,5.0,8.0,85,0.00,,,0.18,weatherlink.com 1.10,2013-02-08 14:59:00,
2013-02-08 10:14:00,34.6,31.0,30.14,NW,324,2.0,9.0,85,0.00,,,0.18,weatherlink.com 1.10,2013-02-08 15:14:00,
2013-02-08 10:29:00,34.6,31.0,30.15,NNW,347,8.0,13.0,85,0.00,,,0.18,weatherlink.com 1.10,2013-02-08 15:29:00,
2013-02-08 10:44:00,34.6,31.0,30.16,NNW,341,5.0,9.0,85,0.00,,,0.18,weatherlink.com 1.10,2013-02-08 15:44:00,
2013-02-08 10:59:00,34.6,31.0,30.17,NNW,344,4.0,7.0,85,0.00,,,0.18,weatherlink.com 1.10,2013-02-08 15:59:00,
2013-02-08 11:14:00,34.7,31.0,30.17,NW,322,5.0,10.0,85,0.00,,,0.18,weatherlink.com 1.10,2013-02-08 16:14:00,
2013-02-08 11:29:00,35.0,30.0,30.18,NW,325,3.0,8.0,83,0.00,,,0.18,weatherlink.com 1.10,2013-02-08 16:29:00,
2013-02-08 11:44:00,35.0,30.0,30.18,NW,313,6.0,11.0,82,0.00,,,0.18,weatherlink.com 1.10,2013-02-08 16:44:00,
2013-02-08 11:59:00,35.2,30.0,30.19,North,11,6.0,10.0,82,0.00,,,0.18,weatherlink.com 1.10,2013-02-08 16:59:00,
2013-02-08 12:14:00,35.2,30.0,30.19,NNW,327,4.0,8.0,82,0.00,,,0.18,weatherlink.com 1.10,2013-02-08 17:14:00,
2013-02-08 12:29:00,35.2,30.0,30.19,North,355,5.0,11.0,81,0.00,,,0.18,weatherlink.com 1.10,2013-02-08 17:29:00,
2013-02-08 12:44:00,35.1,30.0,30.19,WNW,286,7.0,15.0,81,0.00,,,0.18,weatherlink.com 1.10,2013-02-08 17:44:00,
2013-02-08 12:59:00,34.7,30.0,30.20,NW,309,6.0,10.0,82,0.00,,,0.18,weatherlink.com 1.10,2013-02-08 17:59:00,
2013-02-08 13:14:00,35.1,30.0,30.20,NW,320,2.0,7.0,82,0.00,,,0.18,weatherlink.com 1.10,2013-02-08 18:14:00,
2013-02-08 13:29:00,34.8,30.0,30.20,NNW,331,3.0,9.0,81,0.00,,,0.18,weatherlink.com 1.10,2013-02-08 18:29:00,
2013-02-08 13:44:00,34.7,30.0,30.21,WNW,302,1.0,7.0,82,0.00,,,0.18,weatherlink.com 1.10,2013-02-08 18:44:00,
2013-02-08 13:59:00,34.5,30.0,30.21,WNW,282,3.0,10.0,82,0.00,,,0.18,weatherlink.com 1.10,2013-02-08 18:59:00,
2013-02-08 14:15:00,34.4,30.0,30.21,SW,228,1.0,6.0,83,0.00,,,0.18,weatherlink.com 1.10,2013-02-08 19:15:00,
2013-02-08 14:30:00,34.4,30.0,30.21,NW,319,3.0,8.0,83,0.00,,,0.18,weatherlink.com 1.10,2013-02-08 19:30:00,
2013-02-08 14:45:00,34.4,29.0,30.22,WNW,299,2.0,9.0,82,0.00,,,0.18,weatherlink.com 1.10,2013-02-08 19:45:00,
2013-02-08 15:00:00,34.4,29.0,30.22,NNW,338,5.0,8.0,82,0.00,,,0.18,weatherlink.com 1.10,2013-02-08 20:00:00,
2013-02-08 15:15:00,34.5,30.0,30.23,WNW,298,0.0,7.0,82,0.00,,,0.18,weatherlink.com 1.10,2013-02-08 20:15:00,
2013-02-08 15:30:00,34.4,29.0,30.23,NW,320,2.0,8.0,82,0.00,,,0.18,weatherlink.com 1.10,2013-02-08 20:30:00,
2013-02-08 15:45:00,34.2,29.0,30.24,NW,315,4.0,6.0,82,0.00,,,0.18,weatherlink.com 1.10,2013-02-08 20:45:00,
2013-02-08 16:00:00,34.3,29.0,30.25,West,265,3.0,5.0,82,0.00,,,0.18,weatherlink.com 1.10,2013-02-08 21:00:00,
2013-02-08 16:15:00,34.1,29.0,30.25,NNW,330,3.0,9.0,81,0.00,,,0.18,weatherlink.com 1.10,2013-02-08 21:15:00,
2013-02-08 16:30:00,34.1,29.0,30.26,NNW,338,2.0,9.0,82,0.00,,,0.18,weatherlink.com 1.10,2013-02-08 21:30:00,
2013-02-08 16:45:00,34.0,29.0,30.26,WSW,242,0.0,4.0,83,0.00,,,0.18,weatherlink.com 1.10,2013-02-08 21:45:00,
2013-02-08 17:00:00,33.9,29.0,30.26,NNW,341,3.0,5.0,82,0.00,,,0.18,weatherlink.com 1.10,2013-02-08 22:00:00,
2013-02-08 17:15:00,33.8,29.0,30.27,NW,321,0.0,8.0,82,0.00,,,0.18,weatherlink.com 1.10,2013-02-08 22:15:00,
2013-02-08 17:30:00,33.7,28.0,30.29,NW,304,3.0,8.0,81,0.00,,,0.18,weatherlink.com 1.10,2013-02-08 22:30:00,
2013-02-08 17:45:00,33.6,28.0,30.30,NW,313,3.0,7.0,80,0.00,,,0.18,weatherlink.com 1.10,2013-02-08 22:45:00,
2013-02-08 18:00:00,33.6,28.0,30.30,NNW,331,2.0,9.0,80,0.00,,,0.18,weatherlink.com 1.10,2013-02-08 23:00:00,
2013-02-08 18:15:00,33.5,28.0,30.30,NW,306,0.0,6.0,80,0.00,,,0.18,weatherlink.com 1.10,2013-02-08 23:15:00,
2013-02-08 18:30:00,33.3,28.0,30.31,NNW,343,1.0,5.0,81,0.00,,,0.18,weatherlink.com 1.10,2013-02-08 23:30:00,
2013-02-08 18:45:00,33.2,28.0,30.32,NW,311,0.0,4.0,81,0.00,,,0.18,weatherlink.com 1.10,2013-02-08 23:45:00,
2013-02-08 19:00:00,33.2,28.0,30.32,NW,317,0.0,5.0,81,0.00,,,0.18,weatherlink.com 1.10,2013-02-09 00:00:00,
2013-02-08 19:15:00,33.2,28.0,30.32,NW,323,1.0,3.0,81,0.00,,,0.18,weatherlink.com 1.10,2013-02-09 00:15:00,
2013-02-08 19:31:00,33.2,28.0,30.33,NNW,330,0.0,6.0,80,0.00,,,0.18,weatherlink.com 1.10,2013-02-09 00:31:00,
2013-02-08 19:46:00,33.3,28.0,30.34,NW,319,0.0,7.0,80,0.00,,,0.18,weatherlink.com 1.10,2013-02-09 00:46:00,
2013-02-08 20:00:00,33.3,28.0,30.34,NW,326,2.0,7.0,80,0.00,,,0.18,weatherlink.com 1.10,2013-02-09 01:00:00,
2013-02-08 20:15:00,33.4,28.0,30.35,NW,320,2.0,8.0,79,0.00,,,0.18,weatherlink.com 1.10,2013-02-09 01:15:00,
2013-02-08 20:30:00,33.4,28.0,30.35,NNW,334,1.0,5.0,79,0.00,,,0.18,weatherlink.com 1.10,2013-02-09 01:30:00,
2013-02-08 20:46:00,33.4,28.0,30.35,NW,311,2.0,5.0,80,0.00,,,0.18,weatherlink.com 1.10,2013-02-09 01:46:00,
2013-02-08 21:00:00,33.3,28.0,30.34,NW,319,0.0,2.0,80,0.00,,,0.18,weatherlink.com 1.10,2013-02-09 02:00:00,
2013-02-08 21:15:00,33.3,28.0,30.34,NNW,331,2.0,4.0,80,0.00,,,0.18,weatherlink.com 1.10,2013-02-09 02:15:00,
2013-02-08 21:30:00,33.2,28.0,30.34,NNW,335,0.0,2.0,80,0.00,,,0.18,weatherlink.com 1.10,2013-02-09 02:30:00,
2013-02-08 21:45:00,33.2,28.0,30.33,NNW,335,1.0,2.0,80,0.00,,,0.18,weatherlink.com 1.10,2013-02-09 02:45:00,
2013-02-08 22:00:00,33.1,28.0,30.34,NW,320,0.0,4.0,80,0.00,,,0.18,weatherlink.com 1.10,2013-02-09 03:00:00,
2013-02-08 22:15:00,33.1,27.0,30.35,NW,314,1.0,4.0,79,0.00,,,0.18,weatherlink.com 1.10,2013-02-09 03:15:00,
2013-02-08 22:30:00,33.0,27.0,30.35,NW,315,1.0,2.0,79,0.00,,,0.18,weatherlink.com 1.10,2013-02-09 03:30:00,
2013-02-08 22:45:00,32.9,27.0,30.35,NW,315,2.0,3.0,79,0.00,,,0.18,weatherlink.com 1.10,2013-02-09 03:45:00,
2013-02-08 23:01:00,32.9,27.0,30.35,NW,309,0.0,3.0,80,0.00,,,0.18,weatherlink.com 1.10,2013-02-09 04:01:00,
2013-02-08 23:15:00,32.8,27.0,30.36,North,350,0.0,3.0,80,0.00,,,0.18,weatherlink.com 1.10,2013-02-09 04:15:00,
2013-02-08 23:30:00,32.7,27.0,30.36,NNW,334,4.0,5.0,79,0.00,,,0.18,weatherlink.com 1.10,2013-02-09 04:30:00,
2013-02-08 23:45:00,32.7,27.0,30.36,NNW,342,2.0,4.0,79,0.00,,,0.18,weatherlink.com 1.10,2013-02-09 04:45:00,